[[{"header":{"parameterUnit":"m.s-1","parameterCategory":1,"la1":30.2992,"la2":30.254,"lo1":-89.0895,"lo2":-89.0443,"dy":0.0025,"dx":0.0025,"nx":19,"ny":19,"refTime":"2026-04-23T03:00:00:Z","depth":0,"parameterNumber":2,"parameterNumberName":"U-component_of_WINDS"},"data":[0,0,0,-3.7847,-3.7846,-3.7811,-3.781,-3.7788,-3.7788,0,0,0,0,0,0,0,0,0,0,0,-3.7871,-3.7871,-3.7847,-3.7846,-3.7811,-3.781,-3.7788,-3.7788,0,0,0,0,0,0,0,0,0,0,0,-3.7871,-3.7871,-3.7872,-3.7846,-3.7811,-3.781,-3.7788,-3.7807,0,0,0,0,0,0,0,0,0,0,-3.7837,-3.7873,-3.7871,-3.7872,-3.7846,-3.7811,-3.781,-3.7807,-3.7805,-3.7814,0,-3.7825,0,-3.7807,-3.7788,-3.7788,0,0,0,-3.7836,-3.7875,-3.7853,-3.7872,-3.7846,-3.7811,-3.7824,-3.7806,-3.7804,-3.7812,-3.7825,-3.7823,-3.7806,-3.7788,-3.7788,-3.7874,-3.7874,0,0,-3.7838,-3.7872,-3.7854,-3.7852,-3.7859,-3.7825,-3.7823,-3.7804,-3.7821,-3.7825,-3.7822,-3.7806,-3.7788,-3.7788,-3.7873,-3.7874,0,0,0,-3.785,-3.7874,-3.7852,-3.7854,-3.7846,-3.7824,-3.7822,-3.7821,-3.7811,-3.7822,-3.7806,-3.7788,-3.7788,-3.7872,-3.7873,-3.7951,0,0,0,-3.7851,-3.7881,-3.7853,-3.7874,-3.7847,-3.7833,-3.784,-3.7813,-3.7809,-3.7806,-3.7788,-3.7788,-3.7871,-3.7872,-3.7947,-3.7982,0,0,0,-3.7869,-3.7883,-3.7883,-3.7876,-3.7862,-3.7832,-3.7821,-3.7811,-3.78,-3.7788,-3.7788,-3.787,-3.7872,-3.7943,-3.7975,-3.8014,0,0,0,-3.7897,-3.7952,-3.7885,-3.7939,-3.7862,-3.7881,-3.7821,-3.7833,-3.7832,-3.7788,-3.7871,-3.7873,-3.7941,-3.7971,-3.801,-3.8053,-3.8075,0,0,-3.7985,-3.7964,-3.7993,-3.7932,-3.7972,-3.7884,-3.7935,-3.7901,-3.7868,-3.7874,-3.7875,-3.7948,-3.7975,-3.8013,-3.8182,-3.82,0,0,0,-3.8033,-3.8054,-3.8057,-3.8059,-3.8035,-3.8017,-3.7972,-3.796,-3.7963,-3.7878,-3.7972,-3.7987,-3.8008,-3.8027,-3.8041,-3.8058,-3.7883,-3.7883,-3.7883,-3.8206,-3.8162,-3.8208,-3.816,-3.8163,-3.8116,-3.8114,-3.8089,-3.8043,-3.8067,-3.8068,-3.8176,-3.8199,-3.821,-3.8227,-3.8087,-3.8088,-3.8088,-3.8088,-3.8331,-3.8354,-3.8294,-3.8317,-3.827,-3.8289,-3.8248,-3.8215,-3.8226,-3.8171,-3.8187,-3.8131,-3.823,-3.8243,-3.8093,-3.8092,-3.8092,-3.8091,-3.8091,-3.8439,-3.8442,-3.8427,-3.8425,-3.8429,-3.8379,-3.8393,-3.8349,-3.8309,-3.8326,-3.8322,-3.8321,-3.8314,-3.8327,-3.8328,-3.8328,-3.8328,-3.8329,-3.8329,-3.8556,-3.8537,-3.8554,-3.8535,-3.853,-3.8519,-3.8475,-3.847,-3.8453,-3.842,-3.842,-3.8373,-3.8248,-3.8218,-3.8334,-3.8333,-3.8333,-3.8332,-3.8332,-3.8698,-3.866,-3.8686,-3.8682,-3.8656,-3.8663,-3.8609,-3.8602,-3.8591,-3.86,-3.8549,-3.8465,-3.8439,-3.8427,-3.8401,-3.8559,-3.8559,-3.8559,-3.8559,-3.8789,-3.8773,-3.879,-3.8787,-3.8779,-3.8733,-3.8764,-3.8731,-3.8691,-3.8681,-3.8653,-3.8615,-3.8605,-3.8586,-3.857,-3.8545,-3.8736,-3.8736,-3.8736,-3.8874,-3.8855,-3.889,-3.885,-3.8828,-3.8809,-3.8838,-3.8837,-3.8783,-3.8743,-3.8673,-3.8666,-3.8605,-3.8588,-3.8545,-3.8522,-3.8476,0,0]},{"header":{"parameterUnit":"m.s-1","parameterCategory":1,"la1":30.2992,"la2":30.254,"lo1":-89.0895,"lo2":-89.0443,"dy":0.0025,"dx":0.0025,"nx":19,"ny":19,"refTime":"2026-04-23T03:00:00:Z","depth":0,"parameterNumber":3,"parameterNumberName":"V-component_of_WINDS"},"data":[0,0,0,3.1909,3.1907,3.1827,3.1827,3.1712,3.1711,0,0,0,0,0,0,0,0,0,0,0,3.1928,3.1927,3.1909,3.1907,3.1828,3.1827,3.1712,3.1711,0,0,0,0,0,0,0,0,0,0,0,3.1929,3.1928,3.1927,3.1907,3.1828,3.1827,3.1713,3.1777,0,0,0,0,0,0,0,0,0,0,3.1856,3.187,3.1928,3.1927,3.1906,3.1828,3.1827,3.178,3.1773,3.1744,0,3.172,0,3.1714,3.1703,3.1702,0,0,0,3.191,3.1876,3.1859,3.1926,3.1906,3.1828,3.1864,3.1776,3.1768,3.1734,3.1718,3.1714,3.1712,3.1702,3.1701,3.1536,3.1535,0,0,3.1914,3.191,3.1865,3.1854,3.1869,3.1867,3.1862,3.1771,3.1752,3.1718,3.1712,3.171,3.1701,3.17,3.1537,3.1536,0,0,0,3.1925,3.1913,3.1899,3.1858,3.1845,3.1864,3.1859,3.1756,3.1752,3.1711,3.1709,3.17,3.1699,3.1538,3.1536,3.149,0,0,0,3.1928,3.192,3.1901,3.1898,3.1847,3.18,3.1846,3.1758,3.1748,3.1709,3.17,3.1698,3.1539,3.1537,3.1494,3.1468,0,0,0,3.1935,3.1921,3.1908,3.1898,3.1864,3.1802,3.1793,3.1756,3.1747,3.1702,3.1697,3.1539,3.1537,3.1497,3.1473,3.1424,0,0,0,3.194,3.1866,3.1907,3.1824,3.1864,3.1775,3.1793,3.1726,3.1682,3.17,3.1538,3.1536,3.1498,3.1476,3.1427,3.1381,3.1362,0,0,3.1844,3.1854,3.1806,3.184,3.1744,3.1788,3.1683,3.1644,3.1641,3.157,3.1566,3.1492,3.1473,3.1424,3.1258,3.1243,0,0,0,3.1774,3.1738,3.1714,3.1674,3.1645,3.1618,3.1597,3.1582,3.1523,3.1606,3.1462,3.145,3.1422,3.14,3.1387,3.1362,3.1526,3.1527,3.1527,3.1631,3.1635,3.1554,3.1548,3.1509,3.1489,3.1457,3.1434,3.1446,3.1412,3.1391,3.129,3.1265,3.1255,3.1229,3.1368,3.1367,3.1367,3.1367,3.1491,3.1441,3.1463,3.1392,3.1396,3.1335,3.1312,3.1324,3.1266,3.1306,3.1281,3.1324,3.1239,3.1216,3.1364,3.1364,3.1365,3.1365,3.1365,3.1397,3.1374,3.1361,3.1305,3.126,3.1256,3.12,3.1205,3.1207,3.1183,3.116,3.1161,3.1161,3.1172,3.1172,3.1171,3.1171,3.1171,3.1171,3.1305,3.1292,3.1247,3.1211,3.1187,3.1155,3.1135,3.1109,3.1082,3.1089,3.1089,3.1104,3.1231,3.1262,3.1165,3.1166,3.1167,3.1167,3.1168,3.116,3.1194,3.1124,3.11,3.1059,3.1014,3.1022,3.097,3.0949,3.0922,3.0943,3.1036,3.1045,3.1055,3.1081,3.0944,3.0944,3.0944,3.0944,3.108,3.1087,3.1017,3.0978,3.094,3.094,3.0858,3.0841,3.0828,3.0816,3.0836,3.0871,3.0882,3.0884,3.0898,3.0922,3.0747,3.0747,3.0747,3.0991,3.0994,3.0925,3.0917,3.0886,3.0858,3.0781,3.0732,3.0725,3.0739,3.0805,3.0814,3.087,3.0888,3.0903,3.0924,3.0968,0,0]}]]